Weather History for Phnom Penh, Cambodia

Change the Weather History Date:

Saturday, March 30, 2013

  Actual Average Record
Temperature  
Mean Temperature 90 °F -  
Max Temperature 98 °F 92 °F 98 °F (2013)
Min Temperature 81 °F 78 °F 77 °F (2007)
Cooling Degree Days 24    
Growing Degree Days 40 (Base 50)    
Moisture  
Dew Point 71 °F    
Average Humidity 53    
Maximum Humidity 81    
Minimum Humidity 35    
Precipitation  
Precipitation 0.00 in - - ()
Sea Level Pressure  
Sea Level Pressure 29.73 in    
Wind  
Wind Speed 7 mph ()    
Max Wind Speed 14 mph    
Max Gust Speed -    
Visibility 6.0 miles    
Events      
Averages and records for this station are not official NWS values.
T = Trace of Precipitation, MM = Missing Value Source: Averaged Metar Reports

Daily Weather History Graph

Daily Weather History Graph

Search for Another Location

Airport:

Trip Planner

Search our weather history database for the weather conditions in past years. The results will help you decide how hot, cold, wet, or windy it might be!

Date:

Astronomy

Mar. 30, 2013 Rise Set
Actual Time 5:58 AM ICT 6:11 PM ICT
Civil Twilight 5:37 AM ICT 6:32 PM ICT
Nautical Twilight 5:12 AM ICT 6:57 PM ICT
Astronomical Twilight 4:48 AM ICT 7:22 PM ICT
Moon 9:03 PM ICT 8:03 AM ICT
Length of Visible Light 12h 55m
Length of Day
12h 12m
Waning Gibbous, 90% of the Moon is Illuminated
Mar 30
Waning Gibbous
Apr 3
Last Quarter
Apr 10
New
Apr 18
First Quarter
Apr 26
Full

Hourly Weather History & Observations

Time (ICT) Temp. Heat Index Dew Point Humidity Pressure Visibility Wind Dir Wind Speed Gust Speed Precip Events Conditions
12:00 AM 86.0 °F 93.4 °F 73.4 °F 66% 29.74 in 6.2 mi SW 5.8 mph - N/A   Partly Cloudy
12:30 AM 86.0 °F 90.4 °F 69.8 °F 58% 29.74 in 6.2 mi SSE 4.6 mph - N/A   Partly Cloudy
1:00 AM 86.0 °F 90.4 °F 69.8 °F 58% 29.74 in 6.2 mi SE 6.9 mph - N/A   Partly Cloudy
6:00 AM 82.4 °F 89.5 °F 75.2 °F 79% 29.74 in 6.2 mi SSE 5.8 mph - N/A   Partly Cloudy
7:00 AM 82 °F - 77 °F 81% 29.81 in 6 mi East 183.5 mph - -   Scattered Clouds
7:00 AM 82.4 °F 89.5 °F 75.2 °F 79% 29.77 in 6.2 mi SSE 9.2 mph - N/A   Partly Cloudy
7:30 AM 84.2 °F 92.3 °F 75.2 °F 74% 29.77 in 6.2 mi SSE 8.1 mph - N/A   Partly Cloudy
8:00 AM 86.0 °F 95.1 °F 75.2 °F 70% 29.80 in 6.2 mi SSE 9.2 mph - N/A   Scattered Clouds
8:30 AM 87.8 °F 97.6 °F 75.2 °F 66% 29.80 in - North - - N/A   Scattered Clouds
9:00 AM 87.8 °F 97.6 °F 75.2 °F 66% 29.80 in 6.2 mi South 8.1 mph - N/A   Scattered Clouds
9:30 AM 89.6 °F 99.8 °F 75.2 °F 62% 29.80 in 6.2 mi SSE 8.1 mph - N/A   Scattered Clouds
10:00 AM 91.4 °F 100.1 °F 73.4 °F 55% 29.80 in 6.2 mi SSE 5.8 mph - N/A   Scattered Clouds
10:30 AM 91.4 °F 98.4 °F 71.6 °F 52% 29.80 in 6.2 mi SE 9.2 mph - N/A   Scattered Clouds
11:00 AM 93.2 °F 100.5 °F 71.6 °F 49% 29.77 in 6.2 mi SSE 5.8 mph - N/A   Scattered Clouds
11:30 AM 95.0 °F 101.3 °F 69.8 °F 44% 29.77 in 6.2 mi South 12.7 mph - N/A   Scattered Clouds
12:00 PM 95.0 °F 99.5 °F 68.0 °F 41% 29.74 in 6.2 mi SE 4.6 mph - N/A   Scattered Clouds
12:30 PM 95.0 °F 99.5 °F 68.0 °F 41% 29.74 in 6.2 mi South 4.6 mph - N/A   Scattered Clouds
1:00 PM 96.8 °F 101.8 °F 68.0 °F 39% 29.71 in 6.2 mi SSE 11.5 mph - N/A   Scattered Clouds
1:30 PM 96.8 °F 103.1 °F 69.8 °F 41% 29.71 in 6.2 mi SSE 10.4 mph - N/A   Scattered Clouds
2:00 PM 98.6 °F 104.1 °F 68.0 °F 37% 29.68 in 6.2 mi SSE 9.2 mph - N/A   Scattered Clouds
2:30 PM 96.8 °F 101.8 °F 68.0 °F 39% 29.68 in 6.2 mi SSW 10.4 mph - N/A   Scattered Clouds
3:00 PM 98.6 °F 105.5 °F 69.8 °F 39% 29.65 in 6.2 mi SE 12.7 mph - N/A   Scattered Clouds
3:30 PM 98.6 °F 102.8 °F 66.2 °F 35% 29.65 in 6.2 mi SE 11.5 mph - N/A   Scattered Clouds
4:00 PM 98.6 °F 102.8 °F 66.2 °F 35% 29.65 in 6.2 mi SE 11.5 mph - N/A   Scattered Clouds
4:30 PM 96.8 °F 100.7 °F 66.2 °F 37% 29.65 in 6.2 mi SE 11.5 mph - N/A   Scattered Clouds
5:00 PM 96.8 °F 101.8 °F 68.0 °F 39% 29.65 in 6.2 mi SSE 9.2 mph - N/A   Partly Cloudy
5:30 PM 95.0 °F 99.5 °F 68.0 °F 41% 29.65 in 6.2 mi SSE 12.7 mph - N/A   Partly Cloudy
6:00 PM 95.0 °F 99.5 °F 68.0 °F 41% 29.65 in 6.2 mi SSE 13.8 mph - N/A   Partly Cloudy
6:30 PM 93.2 °F 98.8 °F 69.8 °F 46% 29.68 in 5.6 mi SSE 10.4 mph - N/A   Partly Cloudy
7:00 PM 93.2 °F 98.8 °F 69.8 °F 46% 29.68 in 5.6 mi SSE 6.9 mph - N/A   Partly Cloudy
7:30 PM 91.4 °F 96.8 °F 69.8 °F 49% 29.68 in 5.6 mi South 6.9 mph - N/A   Partly Cloudy
8:00 PM 91.4 °F 98.4 °F 71.6 °F 52% 29.71 in 5.6 mi SSE 5.8 mph - N/A   Partly Cloudy
8:30 PM 91.4 °F 98.4 °F 71.6 °F 52% 29.71 in 5.6 mi SSE 5.8 mph - N/A   Partly Cloudy
9:00 PM 89.6 °F 96.2 °F 71.6 °F 55% 29.71 in 5.6 mi SSW 6.9 mph - N/A   Partly Cloudy
9:30 PM 89.6 °F 96.2 °F 71.6 °F 55% 29.74 in 5.6 mi SSW 5.8 mph - N/A   Partly Cloudy
10:00 PM 89.6 °F 96.2 °F 71.6 °F 55% 29.74 in 5.6 mi South 6.9 mph - N/A   Partly Cloudy
10:30 PM 87.8 °F 93.8 °F 71.6 °F 58% 29.74 in 5.6 mi South 8.1 mph - N/A   Partly Cloudy
11:00 PM 87.8 °F 93.8 °F 71.6 °F 58% 29.74 in 5.6 mi SSW 8.1 mph - N/A   Partly Cloudy
11:30 PM 87.8 °F 93.8 °F 71.6 °F 58% 29.74 in 5.6 mi South 8.1 mph - N/A   Partly Cloudy